| time (UTC) | temp F | wind direction | speed knots | gust knots | rain 1hr in | rain 24hr in | rain mn in | humidity % | barometer mb |
| 20260507232405 | 56 | 337 | 3.5 | 8.7 | 0.00 | 0.09 | 0.00 | 79 | 1013.4 |
| 20260507231906 | 56 | 334 | 4.3 | 8.7 | 0.00 | 0.09 | 0.00 | 79 | 1013.4 |
| 20260507230348 | 56 | 1 | 7.0 | 9.6 | 0.00 | 0.09 | 0.00 | 79 | 1013.6 |
| 20260507225858 | 57 | 355 | 6.1 | 8.7 | 0.00 | 0.09 | 0.00 | 78 | 1013.7 |
| 20260507224806 | 57 | 7 | 6.1 | 11.3 | 0.00 | 0.09 | 0.00 | 77 | 1013.9 |
| 20260507224301 | 58 | 355 | 7.8 | 11.3 | 0.00 | 0.09 | 0.00 | 77 | 1013.9 |
| 20260507223805 | 58 | 355 | 5.2 | 7.8 | 0.00 | 0.09 | 0.00 | 76 | 1014.0 |
| 20260507223259 | 58 | 348 | 4.3 | 7.8 | 0.00 | 0.09 | 0.00 | 76 | 1014.1 |
| 20260507222838 | 58 | 0 | 5.2 | 7.8 | 0.00 | 0.09 | 0.00 | 76 | 1014.1 |
| 20260507221249 | 58 | 24 | 5.2 | 7.8 | 0.00 | 0.09 | 0.00 | 77 | 1014.1 |
| 20260507220749 | 58 | 329 | 4.3 | 7.8 | 0.00 | 0.09 | 0.00 | 77 | 1014.1 |
| 20260507220341 | 58 | 343 | 5.2 | 7.8 | 0.00 | 0.09 | 0.00 | 78 | 1014.0 |
| 20260507215859 | 57 | 41 | 1.7 | 6.1 | 0.00 | 0.09 | 0.09 | 78 | 1013.9 |
| 20260507214233 | 59 | 354 | 3.5 | 6.1 | 0.00 | 0.09 | 0.09 | 77 | 1013.9 |
| 20260507213741 | 59 | 345 | 3.5 | 7.8 | 0.00 | 0.09 | 0.09 | 76 | 1013.8 |
| 20260507213229 | 59 | 341 | 3.5 | 7.8 | 0.00 | 0.09 | 0.09 | 77 | 1013.8 |
| 20260507212719 | 59 | 337 | 3.5 | 5.2 | 0.00 | 0.09 | 0.09 | 76 | 1013.9 |
| 20260507212242 | 59 | 338 | 3.5 | 6.1 | 0.00 | 0.09 | 0.09 | 76 | 1013.9 |
| 20260507211212 | 60 | 3 | 5.2 | 6.1 | 0.00 | 0.09 | 0.09 | 76 | 1013.9 |
| 20260507210704 | 60 | 8 | 4.3 | 6.1 | 0.00 | 0.09 | 0.09 | 76 | 1013.9 |
| 20260507210206 | 60 | 350 | 5.2 | 6.1 | 0.00 | 0.09 | 0.09 | 75 | 1013.9 |
| 20260507205718 | 60 | 350 | 4.3 | 5.2 | 0.00 | 0.09 | 0.09 | 74 | 1013.9 |
| 20260507204649 | 60 | 344 | 5.2 | 7.8 | 0.00 | 0.09 | 0.09 | 75 | 1013.9 |
| 20260507204148 | 60 | 347 | 5.2 | 6.1 | 0.00 | 0.09 | 0.09 | 74 | 1013.9 |
| 20260507203637 | 60 | 355 | 5.2 | 6.1 | 0.00 | 0.09 | 0.09 | 73 | 1013.8 |
| 20260507203135 | 60 | 357 | 4.3 | 5.2 | 0.00 | 0.09 | 0.09 | 73 | 1013.8 |
| 20260507202638 | 60 | 351 | 4.3 | 5.2 | 0.00 | 0.09 | 0.09 | 73 | 1013.8 |
| 20260507202130 | 60 | 354 | 3.5 | 3.5 | 0.00 | 0.09 | 0.09 | 74 | 1013.8 |
| 20260507201624 | 61 | 37 | 1.7 | 4.3 | 0.00 | 0.09 | 0.09 | 73 | 1013.9 |
| 20260507201132 | 61 | 18 | 3.5 | 4.3 | 0.00 | 0.09 | 0.09 | 71 | 1013.8 |
| 20260507200613 | 61 | 355 | 3.5 | 4.3 | 0.00 | 0.09 | 0.09 | 72 | 1013.8 |
| 20260507195606 | 61 | 343 | 3.5 | 5.2 | 0.00 | 0.09 | 0.09 | 72 | 1013.8 |
| 20260507195057 | 62 | 345 | 3.5 | 5.2 | 0.00 | 0.09 | 0.09 | 72 | 1013.7 |
| 20260507194632 | 62 | 345 | 3.5 | 4.3 | 0.00 | 0.09 | 0.09 | 71 | 1013.8 |
| 20260507193544 | 62 | 343 | 3.5 | 4.3 | 0.00 | 0.09 | 0.09 | 69 | 1013.7 |
| 20260507193047 | 62 | 11 | 2.6 | 4.3 | 0.00 | 0.09 | 0.09 | 68 | 1013.7 |
| 20260507192549 | 62 | 0 | 3.5 | 3.5 | 0.00 | 0.09 | 0.09 | 68 | 1013.6 |
| 20260507192048 | 63 | 336 | 0.9 | 2.6 | 0.00 | 0.09 | 0.09 | 68 | 1013.6 |
| 20260507191546 | 63 | 323 | 1.7 | 3.5 | 0.00 | 0.09 | 0.09 | 69 | 1013.7 |
| 20260507191038 | 63 | 336 | 1.7 | 3.5 | 0.00 | 0.09 | 0.09 | 68 | 1013.6 |
| 20260507190538 | 64 | 336 | 0.9 | 3.5 | 0.00 | 0.09 | 0.09 | 67 | 1013.6 |
| 20260507185530 | 64 | 353 | 4.3 | 4.3 | 0.00 | 0.09 | 0.09 | 66 | 1013.6 |
| 20260507185034 | 64 | 345 | 3.5 | 5.2 | 0.00 | 0.09 | 0.09 | 66 | 1013.5 |
| 20260507184533 | 64 | 341 | 3.5 | 5.2 | 0.00 | 0.09 | 0.09 | 66 | 1013.5 |
| 20260507184033 | 64 | 340 | 3.5 | 5.2 | 0.00 | 0.09 | 0.09 | 66 | 1013.5 |
| 20260507183530 | 65 | 350 | 3.5 | 4.3 | 0.00 | 0.10 | 0.09 | 66 | 1013.6 |
| 20260507183030 | 65 | 343 | 3.5 | 4.3 | 0.00 | 0.10 | 0.09 | 66 | 1013.6 |
| 20260507182502 | 65 | 353 | 3.5 | 3.5 | 0.00 | 0.12 | 0.09 | 64 | 1013.6 |
| 20260507182004 | 65 | 357 | 3.5 | 3.5 | 0.00 | 0.12 | 0.09 | 64 | 1013.6 |
| 20260507181502 | 65 | 358 | 3.5 | 3.5 | 0.00 | 0.12 | 0.09 | 64 | 1013.7 |
| 20260507181003 | 65 | 358 | 2.6 | 3.5 | 0.00 | 0.12 | 0.09 | 64 | 1013.7 |
| 20260507180501 | 66 | 355 | 2.6 | 3.5 | 0.00 | 0.12 | 0.09 | 63 | 1013.6 |
| 20260507175954 | 66 | 354 | 1.7 | 2.6 | 0.00 | 0.12 | 0.09 | 63 | 1013.6 |
| 20260507175501 | 66 | 344 | 1.7 | 1.7 | 0.00 | 0.12 | 0.09 | 63 | 1013.6 |
| 20260507174957 | 66 | 331 | 0.9 | 1.7 | 0.00 | 0.12 | 0.09 | 62 | 1013.6 |
| 20260507174457 | 67 | 327 | 0.0 | 1.7 | 0.00 | 0.12 | 0.09 | 62 | 1013.5 |
| 20260507173950 | 67 | 355 | 0.0 | 1.7 | 0.00 | 0.12 | 0.09 | 62 | 1013.5 |
| 20260507173448 | 68 | 354 | 1.7 | 2.6 | 0.00 | 0.12 | 0.09 | 61 | 1013.5 |
| 20260507172943 | 69 | 350 | 1.7 | 2.6 | 0.00 | 0.12 | 0.09 | 60 | 1013.4 |
| 20260507172445 | 69 | 330 | 0.9 | 3.5 | 0.00 | 0.12 | 0.09 | 61 | 1013.4 |
| 20260507171941 | 69 | 307 | 1.7 | 3.5 | 0.00 | 0.12 | 0.09 | 60 | 1013.3 |
| 20260507171453 | 70 | 1 | 0.9 | 2.6 | 0.00 | 0.12 | 0.09 | 60 | 1013.3 |
| 20260507170942 | 70 | 343 | 0.9 | 2.6 | 0.00 | 0.12 | 0.09 | 60 | 1013.4 |
| 20260507170444 | 70 | 288 | 0.9 | 3.5 | 0.00 | 0.12 | 0.09 | 60 | 1013.3 |
| 20260507165946 | 70 | 20 | 1.7 | 3.5 | 0.00 | 0.12 | 0.09 | 59 | 1013.3 |
| 20260507165442 | 70 | 0 | 1.7 | 2.6 | 0.00 | 0.12 | 0.09 | 58 | 1013.3 |
| 20260507164941 | 70 | 348 | 1.7 | 3.5 | 0.00 | 0.12 | 0.09 | 57 | 1013.3 |
| 20260507164444 | 70 | 344 | 2.6 | 5.2 | 0.00 | 0.12 | 0.09 | 57 | 1013.4 |
| 20260507163947 | 70 | 306 | 0.9 | 6.1 | 0.00 | 0.12 | 0.09 | 59 | 1013.3 |
| 20260507163428 | 70 | 353 | 4.3 | 6.1 | 0.00 | 0.12 | 0.09 | 57 | 1013.2 |
| 20260507162921 | 71 | 286 | 0.9 | 3.5 | 0.00 | 0.12 | 0.09 | 57 | 1013.2 |
| 20260507162425 | 70 | 324 | 0.9 | 4.3 | 0.00 | 0.12 | 0.09 | 57 | 1013.2 |
| 20260507161919 | 70 | 337 | 2.6 | 4.3 | 0.00 | 0.12 | 0.09 | 56 | 1013.2 |
| 20260507161414 | 71 | 13 | 1.7 | 5.2 | 0.00 | 0.12 | 0.09 | 54 | 1013.3 |
| 20260507160914 | 71 | 351 | 1.7 | 5.2 | 0.00 | 0.12 | 0.09 | 55 | 1013.2 |
| 20260507160401 | 72 | 357 | 1.7 | 3.5 | 0.00 | 0.12 | 0.09 | 55 | 1013.2 |
| 20260507155901 | 72 | 271 | 0.0 | 1.7 | 0.00 | 0.12 | 0.09 | 55 | 1013.3 |
| 20260507155357 | 71 | 250 | 0.9 | 1.7 | 0.00 | 0.12 | 0.09 | 55 | 1013.2 |
| 20260507154351 | 71 | 86 | 1.7 | 2.6 | 0.00 | 0.12 | 0.09 | 55 | 1013.3 |
| 20260507153847 | 71 | 200 | 0.0 | 2.6 | 0.00 | 0.12 | 0.09 | 53 | 1013.4 |
| 20260507153343 | 71 | 171 | 0.9 | 3.5 | 0.00 | 0.12 | 0.09 | 55 | 1013.4 |
| 20260507152842 | 71 | 353 | 1.7 | 3.5 | 0.00 | 0.12 | 0.09 | 54 | 1013.3 |
| 20260507152345 | 70 | 99 | 0.0 | 3.5 | 0.00 | 0.12 | 0.09 | 56 | 1013.4 |
| 20260507151838 | 71 | 14 | 2.6 | 3.5 | 0.00 | 0.12 | 0.09 | 55 | 1013.5 |
| 20260507151337 | 71 | 354 | 1.7 | 2.6 | 0.00 | 0.12 | 0.09 | 56 | 1013.4 |
| 20260507150833 | 70 | 323 | 0.9 | 2.6 | 0.00 | 0.12 | 0.09 | 58 | 1013.4 |
| 20260507150330 | 70 | 265 | 0.9 | 2.6 | 0.00 | 0.12 | 0.09 | 59 | 1013.4 |
| 20260507145822 | 69 | 275 | 1.7 | 3.5 | 0.00 | 0.12 | 0.09 | 58 | 1013.4 |
| 20260507145319 | 69 | 286 | 1.7 | 3.5 | 0.00 | 0.12 | 0.09 | 59 | 1013.5 |
| 20260507144821 | 69 | 306 | 1.7 | 2.6 | 0.00 | 0.12 | 0.09 | 60 | 1013.5 |
| 20260507144318 | 69 | 279 | 2.6 | 2.6 | 0.00 | 0.12 | 0.09 | 58 | 1013.5 |
| 20260507143807 | 69 | 326 | 0.9 | 1.7 | 0.00 | 0.12 | 0.09 | 62 | 1013.6 |
| 20260507143306 | 67 | 295 | 0.9 | 2.6 | 0.00 | 0.12 | 0.09 | 63 | 1013.6 |
| 20260507142806 | 67 | 298 | 1.7 | 2.6 | 0.00 | 0.12 | 0.09 | 62 | 1013.6 |
| 20260507142307 | 67 | 235 | 1.7 | 3.5 | 0.00 | 0.12 | 0.09 | 62 | 1013.7 |
| 20260507141810 | 68 | 296 | 2.6 | 3.5 | 0.00 | 0.12 | 0.09 | 62 | 1013.7 |
| 20260507141259 | 69 | 292 | 1.7 | 3.5 | 0.00 | 0.12 | 0.09 | 62 | 1013.8 |
| 20260507140754 | 69 | 298 | 0.9 | 6.1 | 0.00 | 0.12 | 0.09 | 60 | 1013.9 |
| 20260507140252 | 69 | 216 | 3.5 | 6.1 | 0.00 | 0.12 | 0.09 | 57 | 1013.9 |
| 20260507135248 | 68 | 272 | 3.5 | 6.1 | 0.00 | 0.12 | 0.09 | 59 | 1014.0 |
| 20260507133739 | 69 | 110 | 0.0 | 6.1 | 0.00 | 0.16 | 0.09 | 58 | 1014.2 |
| 20260507133241 | 70 | 221 | 3.5 | 6.1 | 0.00 | 0.16 | 0.09 | 56 | 1014.3 |
| 20260507132737 | 69 | 214 | 2.6 | 7.8 | 0.00 | 0.16 | 0.09 | 55 | 1014.3 |
| 20260507132242 | 70 | 231 | 3.5 | 7.8 | 0.00 | 0.16 | 0.09 | 57 | 1014.4 |
| 20260507131736 | 70 | 240 | 1.7 | 5.2 | 0.00 | 0.16 | 0.09 | 56 | 1014.5 |
| 20260507131236 | 70 | 159 | 2.6 | 5.2 | 0.00 | 0.16 | 0.09 | 56 | 1014.4 |
| 20260507130724 | 70 | 250 | 3.5 | 6.1 | 0.00 | 0.16 | 0.09 | 58 | 1014.5 |
| 20260507130225 | 70 | 172 | 3.5 | 8.7 | 0.00 | 0.16 | 0.09 | 57 | 1014.6 |
| 20260507125219 | 69 | 219 | 5.2 | 9.6 | 0.00 | 0.16 | 0.09 | 56 | 1014.7 |
| 20260507124212 | 68 | 199 | 5.2 | 12.2 | 0.00 | 0.16 | 0.09 | 57 | 1014.6 |
| 20260507123721 | 67 | 189 | 7.0 | 12.2 | 0.00 | 0.16 | 0.09 | 59 | 1014.6 |
| 20260507123208 | 67 | 210 | 3.5 | 10.4 | 0.00 | 0.16 | 0.09 | 59 | 1014.7 |
| 20260507122206 | 68 | 183 | 4.3 | 9.6 | 0.00 | 0.16 | 0.09 | 63 | 1014.6 |
| 20260507121706 | 68 | 137 | 5.2 | 9.6 | 0.00 | 0.16 | 0.09 | 64 | 1014.6 |
| 20260507120658 | 68 | 206 | 7.0 | 9.6 | 0.00 | 0.16 | 0.09 | 59 | 1014.5 |
| 20260507115646 | 68 | 206 | 5.2 | 10.4 | 0.00 | 0.16 | 0.09 | 63 | 1014.6 |
| 20260507115152 | 68 | 154 | 3.5 | 10.4 | 0.00 | 0.16 | 0.09 | 64 | 1014.6 |
| 20260507114641 | 68 | 118 | 4.3 | 8.7 | 0.00 | 0.16 | 0.09 | 60 | 1014.6 |
| 20260507114142 | 68 | 133 | 5.2 | 8.7 | 0.00 | 0.16 | 0.09 | 66 | 1014.7 |
| 20260507113645 | 68 | 141 | 5.2 | 6.1 | 0.00 | 0.16 | 0.09 | 66 | 1014.7 |
| 20260507113138 | 68 | 117 | 2.6 | 7.8 | 0.00 | 0.16 | 0.09 | 65 | 1014.7 |
| 20260507112637 | 68 | 209 | 4.3 | 7.8 | 0.00 | 0.16 | 0.09 | 63 | 1014.8 |
| 20260507112135 | 68 | 141 | 3.5 | 8.7 | 0.00 | 0.16 | 0.09 | 61 | 1014.8 |
| 20260507111644 | 67 | 210 | 4.3 | 8.7 | 0.00 | 0.16 | 0.09 | 64 | 1014.8 |
| 20260507111141 | 68 | 137 | 5.2 | 8.7 | 0.00 | 0.16 | 0.09 | 63 | 1014.8 |
| 20260507110142 | 67 | 234 | 3.5 | 9.6 | 0.00 | 0.16 | 0.09 | 67 | 1014.9 |
| 20260507105629 | 66 | 220 | 5.2 | 10.4 | 0.00 | 0.16 | 0.09 | 64 | 1014.9 |
| 20260507105130 | 66 | 243 | 3.5 | 10.4 | 0.00 | 0.16 | 0.09 | 63 | 1015.1 |
| 20260507104624 | 66 | 204 | 5.2 | 10.4 | 0.00 | 0.16 | 0.09 | 63 | 1015.1 |
| 20260507104123 | 67 | 188 | 4.3 | 10.4 | 0.00 | 0.16 | 0.09 | 69 | 1015.1 |
| 20260507103112 | 65 | 159 | 4.3 | 10.4 | 0.00 | 0.16 | 0.09 | 71 | 1015.2 |
| 20260507102611 | 65 | 196 | 7.8 | 10.4 | 0.00 | 0.16 | 0.09 | 67 | 1015.2 |
| 20260507102115 | 65 | 206 | 7.0 | 9.6 | 0.00 | 0.16 | 0.09 | 67 | 1015.2 |
| 20260507101613 | 65 | 207 | 5.2 | 10.4 | 0.00 | 0.16 | 0.09 | 70 | 1015.2 |
| 20260507101106 | 65 | 144 | 2.6 | 10.4 | 0.00 | 0.16 | 0.09 | 71 | 1015.3 |
| 20260507100058 | 65 | 206 | 3.5 | 7.8 | 0.00 | 0.16 | 0.09 | 76 | 1015.5 |
| 20260507095057 | 64 | 209 | 4.3 | 9.6 | 0.00 | 0.16 | 0.09 | 75 | 1015.3 |
| 20260507094537 | 64 | 210 | 4.3 | 9.6 | 0.00 | 0.16 | 0.09 | 79 | 1015.4 |
| 20260507094037 | 63 | 110 | 6.1 | 8.7 | 0.00 | 0.16 | 0.09 | 79 | 1015.3 |
| 20260507093533 | 64 | 144 | 4.3 | 6.1 | 0.00 | 0.16 | 0.09 | 78 | 1015.4 |
| 20260507092529 | 63 | 61 | 4.3 | 8.7 | 0.00 | 0.16 | 0.09 | 79 | 1015.4 |
| 20260507092020 | 63 | 140 | 3.5 | 7.8 | 0.00 | 0.16 | 0.09 | 79 | 1015.5 |
| 20260507091528 | 63 | 230 | 4.3 | 7.8 | 0.00 | 0.16 | 0.09 | 81 | 1015.5 |
| 20260507091025 | 62 | 235 | 3.5 | 6.1 | 0.00 | 0.16 | 0.09 | 82 | 1015.4 |
| 20260507090525 | 62 | 190 | 3.5 | 9.6 | 0.00 | 0.16 | 0.09 | 83 | 1015.5 |
| 20260507090007 | 61 | 210 | 4.3 | 9.6 | 0.00 | 0.16 | 0.09 | 82 | 1015.5 |
| 20260507084949 | 62 | 182 | 5.2 | 8.7 | 0.00 | 0.16 | 0.09 | 83 | 1015.6 |
| 20260507084442 | 61 | 137 | 3.5 | 9.6 | 0.00 | 0.16 | 0.09 | 84 | 1015.5 |
| 20260507083945 | 61 | 238 | 5.2 | 10.4 | 0.00 | 0.16 | 0.09 | 83 | 1015.6 |
| 20260507083439 | 61 | 233 | 4.3 | 10.4 | 0.00 | 0.16 | 0.09 | 83 | 1015.5 |
| 20260507082935 | 61 | 199 | 4.3 | 6.1 | 0.00 | 0.16 | 0.09 | 85 | 1015.6 |
| 20260507082434 | 60 | 133 | 3.5 | 6.1 | 0.00 | 0.16 | 0.09 | 85 | 1015.5 |
| 20260507081938 | 60 | 127 | 4.3 | 6.1 | 0.00 | 0.16 | 0.09 | 86 | 1015.5 |
| 20260507081433 | 60 | 203 | 4.3 | 6.1 | 0.00 | 0.16 | 0.09 | 87 | 1015.5 |
| 20260507080933 | 60 | 200 | 4.3 | 9.6 | 0.00 | 0.16 | 0.09 | 87 | 1015.5 |
| 20260507080432 | 59 | 207 | 4.3 | 9.6 | 0.00 | 0.16 | 0.09 | 86 | 1015.6 |
| 20260507075931 | 59 | 157 | 4.3 | 9.6 | 0.00 | 0.16 | 0.09 | 89 | 1015.7 |
| 20260507075432 | 59 | 130 | 3.5 | 6.1 | 0.00 | 0.16 | 0.09 | 90 | 1015.6 |
| 20260507074930 | 58 | 189 | 3.5 | 5.2 | 0.00 | 0.16 | 0.09 | 90 | 1015.6 |
| 20260507074432 | 58 | 176 | 3.5 | 5.2 | 0.00 | 0.16 | 0.09 | 90 | 1015.7 |
| 20260507073429 | 57 | 202 | 5.2 | 6.1 | 0.00 | 0.16 | 0.09 | 89 | 1015.6 |
| 20260507072931 | 57 | 162 | 2.6 | 4.3 | 0.00 | 0.16 | 0.09 | 90 | 1015.6 |
| 20260507071933 | 57 | 144 | 3.5 | 7.8 | 0.00 | 0.16 | 0.09 | 90 | 1015.6 |
| 20260507071429 | 57 | 131 | 4.3 | 7.8 | 0.00 | 0.16 | 0.09 | 91 | 1015.6 |
| 20260507070930 | 57 | 186 | 5.2 | 6.1 | 0.00 | 0.16 | 0.09 | 90 | 1015.5 |
| 20260507070430 | 57 | 204 | 3.5 | 7.8 | 0.00 | 0.16 | 0.09 | 93 | 1015.5 |
| 20260507065930 | 57 | 193 | 3.5 | 8.7 | 0.00 | 0.16 | 0.09 | 93 | 1015.5 |
| 20260507065429 | 56 | 55 | 3.5 | 8.7 | 0.00 | 0.16 | 0.09 | 93 | 1015.4 |
| 20260507064428 | 56 | 206 | 5.2 | 8.7 | 0.00 | 0.16 | 0.09 | 93 | 1015.4 |
| 20260507063929 | 56 | 178 | 5.2 | 6.1 | 0.00 | 0.16 | 0.09 | 93 | 1015.3 |
| 20260507062429 | 55 | 154 | 2.6 | 5.2 | 0.00 | 0.16 | 0.09 | 93 | 1015.3 |
| 20260507061928 | 55 | 183 | 2.6 | 5.2 | 0.00 | 0.16 | 0.09 | 93 | 1015.3 |
| 20260507061429 | 55 | 200 | 3.5 | 5.2 | 0.00 | 0.16 | 0.09 | 93 | 1015.2 |
| 20260507060928 | 55 | 214 | 2.6 | 5.2 | 0.00 | 0.16 | 0.09 | 93 | 1015.3 |
| 20260507060426 | 55 | 234 | 3.5 | 6.1 | 0.00 | 0.16 | 0.09 | 93 | 1015.3 |
| 20260507055928 | 55 | 113 | 4.3 | 6.1 | 0.00 | 0.16 | 0.09 | 93 | 1015.2 |
| 20260507055428 | 55 | 145 | 4.3 | 5.2 | 0.00 | 0.16 | 0.09 | 94 | 1015.3 |
| 20260507054927 | 54 | 183 | 3.5 | 5.2 | 0.00 | 0.16 | 0.09 | 94 | 1015.2 |
| 20260507054431 | 54 | 147 | 3.5 | 5.2 | 0.00 | 0.16 | 0.09 | 94 | 1015.3 |
| 20260507053927 | 54 | 172 | 3.5 | 7.8 | 0.00 | 0.16 | 0.09 | 94 | 1015.1 |
| 20260507053432 | 54 | 164 | 4.3 | 7.8 | 0.00 | 0.16 | 0.09 | 94 | 1015.1 |
| 20260507052928 | 54 | 185 | 3.5 | 5.2 | 0.00 | 0.16 | 0.09 | 94 | 1015.1 |
| 20260507052431 | 54 | 154 | 3.5 | 8.7 | 0.00 | 0.16 | 0.09 | 94 | 1014.9 |
| 20260507051915 | 54 | 185 | 3.5 | 8.7 | 0.00 | 0.16 | 0.09 | 94 | 1014.9 |
| 20260507051415 | 54 | 168 | 2.6 | 6.1 | 0.00 | 0.16 | 0.09 | 94 | 1014.9 |
| 20260507050905 | 54 | 157 | 2.6 | 7.8 | 0.00 | 0.16 | 0.09 | 94 | 1014.9 |
| 20260507050406 | 54 | 188 | 5.2 | 7.8 | 0.00 | 0.16 | 0.09 | 94 | 1014.9 |
| 20260507045904 | 54 | 221 | 1.7 | 6.1 | 0.00 | 0.16 | 0.09 | 94 | 1014.9 |
| 20260507045358 | 54 | 226 | 2.6 | 9.6 | 0.00 | 0.16 | 0.09 | 94 | 1014.7 |
| 20260507044856 | 53 | 113 | 4.3 | 9.6 | 0.00 | 0.16 | 0.09 | 94 | 1014.7 |
| 20260507044348 | 53 | 172 | 5.2 | 11.3 | 0.00 | 0.16 | 0.09 | 94 | 1014.6 |
| 20260507043848 | 53 | 124 | 5.2 | 11.3 | 0.00 | 0.16 | 0.09 | 94 | 1014.6 |
| 20260507043340 | 53 | 142 | 3.5 | 5.2 | 0.00 | 0.16 | 0.09 | 94 | 1014.6 |
| 20260507042847 | 54 | 145 | 3.5 | 7.8 | 0.00 | 0.16 | 0.09 | 94 | 1014.5 |
| 20260507042338 | 54 | 186 | 3.5 | 7.8 | 0.00 | 0.16 | 0.09 | 94 | 1014.5 |
| 20260507041836 | 54 | 216 | 1.7 | 8.7 | 0.00 | 0.16 | 0.09 | 94 | 1014.5 |
| 20260507041333 | 53 | 155 | 6.1 | 8.7 | 0.00 | 0.16 | 0.09 | 94 | 1014.3 |
| 20260507040837 | 53 | 188 | 5.2 | 8.7 | 0.00 | 0.16 | 0.09 | 94 | 1014.4 |
| 20260507040323 | 53 | 193 | 4.3 | 8.7 | 0.00 | 0.16 | 0.09 | 94 | 1014.3 |
| 20260507035813 | 53 | 149 | 4.3 | 8.7 | 0.00 | 0.16 | 0.09 | 94 | 1014.2 |
| 20260507035318 | 53 | 200 | 6.1 | 8.7 | 0.00 | 0.16 | 0.09 | 94 | 1014.2 |
| 20260507034758 | 54 | 209 | 4.3 | 7.8 | 0.00 | 0.16 | 0.09 | 94 | 1014.3 |
| 20260507034242 | 54 | 196 | 3.5 | 9.6 | 0.00 | 0.16 | 0.09 | 94 | 1014.2 |
| 20260507033739 | 54 | 185 | 4.3 | 9.6 | 0.00 | 0.16 | 0.09 | 94 | 1014.2 |
| 20260507033233 | 54 | 219 | 3.5 | 7.8 | 0.00 | 0.16 | 0.09 | 94 | 1014.2 |
| 20260507032735 | 54 | 192 | 5.2 | 7.8 | 0.00 | 0.16 | 0.09 | 94 | 1014.1 |
| 20260507032231 | 54 | 206 | 4.3 | 7.8 | 0.00 | 0.16 | 0.09 | 94 | 1014.2 |
| 20260507031730 | 54 | 183 | 3.5 | 7.8 | 0.00 | 0.16 | 0.09 | 94 | 1014.1 |
| 20260507025658 | 54 | 168 | 6.1 | 8.7 | 0.00 | 0.16 | 0.09 | 94 | 1014.1 |
| 20260507025157 | 54 | 162 | 4.3 | 8.7 | 0.00 | 0.16 | 0.09 | 94 | 1014.1 |
| 20260507024154 | 54 | 190 | 3.5 | 8.7 | 0.00 | 0.16 | 0.09 | 94 | 1014.2 |
| 20260507023648 | 54 | 162 | 4.3 | 8.7 | 0.00 | 0.16 | 0.09 | 94 | 1014.2 |
| 20260507023153 | 54 | 192 | 4.3 | 6.1 | 0.00 | 0.16 | 0.09 | 94 | 1014.1 |
| 20260507022636 | 54 | 172 | 2.6 | 6.1 | 0.00 | 0.16 | 0.09 | 94 | 1014.1 |
| 20260507021624 | 54 | 138 | 4.3 | 10.4 | 0.00 | 0.16 | 0.09 | 94 | 1014.0 |
| 20260507021138 | 54 | 137 | 4.3 | 10.4 | 0.00 | 0.16 | 0.09 | 94 | 1014.0 |
| 20260507020629 | 54 | 123 | 5.2 | 10.4 | 0.01 | 0.16 | 0.09 | 94 | 1014.0 |
| 20260507020123 | 54 | 159 | 5.2 | 10.4 | 0.01 | 0.16 | 0.09 | 94 | 1014.0 |
| 20260507015624 | 54 | 138 | 5.2 | 10.4 | 0.01 | 0.16 | 0.09 | 93 | 1014.0 |
| 20260507015123 | 54 | 192 | 5.2 | 9.6 | 0.01 | 0.17 | 0.09 | 93 | 1013.9 |
| 20260507014619 | 54 | 154 | 5.2 | 10.4 | 0.01 | 0.19 | 0.09 | 93 | 1014.0 |
| 20260507014119 | 54 | 148 | 6.1 | 10.4 | 0.01 | 0.20 | 0.09 | 93 | 1014.1 |
| 20260507013631 | 54 | 137 | 7.0 | 11.3 | 0.01 | 0.20 | 0.09 | 93 | 1014.0 |
| 20260507012601 | 54 | 144 | 6.1 | 10.4 | 0.03 | 0.20 | 0.09 | 93 | 1014.2 |
| 20260507012058 | 54 | 190 | 5.2 | 7.8 | 0.04 | 0.20 | 0.09 | 93 | 1014.2 |
| 20260507011555 | 54 | 196 | 2.6 | 7.8 | 0.05 | 0.20 | 0.09 | 93 | 1014.2 |
| 20260507011058 | 54 | 148 | 2.6 | 7.8 | 0.06 | 0.20 | 0.09 | 93 | 1014.2 |
| 20260507010550 | 54 | 257 | 3.5 | 6.1 | 0.05 | 0.20 | 0.09 | 93 | 1014.2 |
| 20260507010045 | 55 | 200 | 3.5 | 7.8 | 0.06 | 0.14 | 0.09 | 93 | 1014.2 |
| 20260507005527 | 55 | 203 | 5.2 | 8.7 | 0.06 | 0.14 | 0.09 | 93 | 1014.2 |
| 20260507005040 | 55 | 204 | 5.2 | 8.7 | 0.06 | 0.14 | 0.09 | 93 | 1014.0 |
| 20260507004536 | 55 | 147 | 3.5 | 6.1 | 0.06 | 0.14 | 0.09 | 93 | 1014.1 |
| 20260507003951 | 55 | 154 | 3.5 | 7.8 | 0.07 | 0.14 | 0.09 | 93 | 1014.0 |
| 20260507003446 | 55 | 141 | 4.3 | 7.8 | 0.07 | 0.14 | 0.09 | 93 | 1014.0 |
| 20260507002944 | 56 | 166 | 4.3 | 9.6 | 0.06 | 0.14 | 0.07 | 93 | 1014.0 |
| 20260507002438 | 56 | 173 | 5.2 | 9.6 | 0.05 | 0.14 | 0.06 | 93 | 1013.9 |
| 20260507001943 | 56 | 157 | 6.1 | 9.6 | 0.05 | 0.14 | 0.06 | 93 | 1014.0 |
| 20260507001444 | 56 | 151 | 4.3 | 7.8 | 0.04 | 0.14 | 0.05 | 93 | 1014.0 |
| 20260507000922 | 56 | 207 | 4.3 | 7.8 | 0.03 | 0.14 | 0.04 | 93 | 1014.1 |
| 20260507000428 | 56 | 195 | 3.5 | 7.8 | 0.02 | 0.14 | 0.03 | 93 | 1014.2 |
| 20260506235921 | 56 | 141 | 3.5 | 7.8 | 0.02 | 0.12 | 0.03 | 93 | 1014.2 |
| 20260506235414 | 56 | 189 | 2.6 | 5.2 | 0.02 | 0.12 | 0.03 | 93 | 1014.2 |
| 20260506234913 | 56 | 164 | 3.5 | 7.8 | 0.02 | 0.12 | 0.02 | 93 | 1014.1 |
| 20260506234403 | 56 | 162 | 3.5 | 9.6 | 0.02 | 0.12 | 0.02 | 93 | 1014.1 |
| 20260506233906 | 56 | 190 | 4.3 | 9.6 | 0.02 | 0.12 | 0.02 | 93 | 1014.1 |
| 20260506233355 | 56 | 157 | 4.3 | 10.4 | 0.02 | 0.12 | 0.02 | 93 | 1014.1 |
| 20260506232853 | 56 | 204 | 7.0 | 10.4 | 0.02 | 0.12 | 0.02 | 93 | 1014.0 |